Temp
81 83 84 85 84 85 86 85 84 85 84 85 85 85 85 84 85 88 88 78 78 81 82 83 82 82 81 81 82 81 81 81 82 82 82 82 82 81 81 80 81 81 81
81 84 85 85 84 85 85 85 84 84 84 85 84 85 85 87 84 83 89 85 81 81 82 83 82 82 81 81 81 82 81 81 81 81 81 81 80 80 80 80 80 81 81
80 80 84 81 86 84 82 84 84 85 86 85 83 86 86 85 85 84 87 89 85 81 80 81 82 82 82 81 82 81 81 81 81 81 81 81 80 80 80 80 80 80 80
80 80 83 84 86 85 85 84 84 86 84 83 84 85 86 86 85 84 86 89 89 91 82 80 80 81 82 82 82 82 82 81 81 81 81 80 80 80 80 80 80 80 79
81 81 83 84 84 86 85 85 84 83 84 84 84 84 84 85 86 88 85 86 87 89 90 82 80 80 82 83 82 82 82 81 80 80 80 80 80 80 80 79 79 79 79
82 82 85 83 84 84 84 84 81 83 84 83 86 84 85 85 86 86 87 88 87 86 89 86 87 87 81 82 82 83 83 82 81 80 80 79 79 79 79 79 79 79 79
82 82 86 85 84 84 83 81 82 82 84 83 83 85 84 85 84 85 88 88 87 87 88 87 88 89 87 80 81 82 82 82 82 81 80 79 79 79 78 78 78 78 78
82 84 84 85 84 85 82 80 80 83 84 82 81 81 82 81 85 86 85 86 87 89 88 87 87 87 88 89 87 80 80 81 82 82 81 79 79 79 78 78 78 78 78
84 84 84 83 82 83 85 82 82 80 82 82 79 80 80 79 82 83 82 85 84 86 87 87 87 87 87 88 85 84 79 78 80 82 82 80 79 79 79 78 78 77 77
84 84 84 83 81 83 83 84 84 83 81 82 81 82 79 80 81 80 83 84 85 85 86 86 88 87 87 87 85 82 79 78 78 80 81 81 80 79 79 79 78 77 77
83 84 82 82 81 84 83 83 81 81 84 84 83 82 80 82 82 81 81 82 82 85 86 86 88 88 86 87 88 85 77 77 77 78 79 80 80 81 80 80 79 78 78
85 84 84 83 83 84 83 85 83 82 83 84 84 83 84 83 83 82 80 81 81 84 86 85 86 86 87 87 85 80 78 77 76 77 77 78 79 80 81 81 81 80 80
84 84 83 82 84 83 84 84 82 82 83 84 82 85 85 85 86 84 81 81 81 83 85 83 82 84 87 88 87 79 78 75 75 74 75 75 76 77 78 80 80 81 81
85 84 84 84 84 84 85 84 86 86 84 85 83 82 82 86 86 85 81 80 77 83 85 83 86 87 87 88 87 77 85 74 73 72 72 73 74 75 76 76 77 77 77
84 83 84 84 84 84 84 84 82 82 83 84 84 82 82 81 87 85 84 85 83 77 80 86 87 84 88 88 85 87 86 76 72 72 71 71 72 73 74 74 74 74 74
81 80 81 82 83 84 84 83 82 84 82 84 85 83 83 83 82 84 85 86 84 83 78 88 89 88 88 88 85 84 86 77 72 71 70 70 71 71 72 72 72 72 73
81 81 81 81 82 82 83 82 81 83 82 83 83 83 83 83 85 83 84 81 84 84 81 86 84 88 84 84 86 84 87 87 88 70 70 70 69 70 71 71 71 70 71
82 82 82 81 81 82 82 81 82 84 82 82 83 83 83 87 82 82 81 81 80 82 82 78 84 87 84 84 84 80 84 88 88 76 69 69 68 68 68 68 68 68 67
82 84 82 81 82 83 81 81 81 81 83 83 83 83 82 82 82 84 83 84 85 84 82 82 83 86 86 87 84 83 83 85 87 76 68 68 67 67 67 66 65 64 63
82 82 83 82 82 83 83 82 82 82 82 84 84 84 84 83 82 82 83 82 82 82 83 82 83 84 84 85 84 84 84 85 86 89 81 76 72 70 67 65 65 65 62
82 82 82 82 82 84 87 82 82 82 81 82 84 83 85 82 76 77 84 83 82 80 84 83 82 83 83 82 79 85 83 85 86 86 86 87 87 86 85 69 72 68 65
79 80 80 81 81 85 75 71 78 83 83 81 82 84 84 77 76 70 69 70 76 80 80 82 83 82 80 82 85 84 83 82 81 87 83 86 88 87 89 89 76 69 66
79 78 79 80 80 81 70 68 70 83 81 83 83 84 85 89 79 84 73 69 69 68 71 81 79 81 81 82 82 80 81 81 82 87 81 82 89 85 89 92 70 67 65
78 78 79 80 80 81 67 66 68 80 81 83 83 83 82 84 84 80 81 82 82 82 80 82 80 82 82 83 81 82 80 80 82 84 83 74 86 85 88 89 71 66 64
76 77 79 78 78 79 64 64 67 79 81 81 83 83 82 81 73 66 78 80 80 80 72 66 66 65 63 63 69 79 74 71 72 77 79 76 82 80 83 85 87 64 61
77 77 79 80 75 76 64 61 65 76 76 79 80 81 66 75 64 61 76 79 78 80 80 80 78 72 69 69 64 73 72 70 70 68 69 70 73 74 72 84 83 81 81
MSLP
1018.50 1018.42 1018.41 1018.55 1018.64 1018.60 1018.42 1018.57 1018.67 1018.66 1018.77 1018.81 1018.88 1018.86 1018.69 1018.75 1018.79 1018.80 1018.76 1019.67 1019.88 1019.83 1020.09 1020.36 1020.71 1020.91 1021.07 1021.27 1021.49 1021.77 1022.17 1022.46 1022.72 1023.00 1023.18 1023.36 1023.61 1023.87 1024.09 1024.29 1024.36 1024.46 1024.51
1018.36 1018.26 1018.29 1018.30 1018.39 1018.36 1018.33 1018.49 1018.54 1018.43 1018.51 1018.62 1018.68 1018.73 1018.59 1018.56 1018.65 1018.87 1018.66 1019.14 1019.71 1019.89 1020.03 1020.24 1020.56 1020.81 1020.94 1021.10 1021.26 1021.53 1021.90 1022.30 1022.58 1022.96 1023.07 1023.23 1023.45 1023.62 1023.81 1023.96 1024.08 1024.16 1024.26
1018.22 1018.36 1018.16 1018.37 1018.13 1018.24 1018.39 1018.52 1018.51 1018.43 1018.25 1018.33 1018.52 1018.36 1018.35 1018.35 1018.49 1018.81 1018.63 1018.70 1019.71 1020.03 1020.15 1020.25 1020.33 1020.68 1020.78 1021.06 1021.15 1021.34 1021.75 1022.06 1022.42 1022.70 1022.91 1023.02 1023.17 1023.35 1023.50 1023.65 1023.78 1023.84 1023.97
1018.17 1018.24 1018.13 1018.08 1018.15 1018.14 1018.29 1018.33 1018.47 1018.32 1018.35 1018.37 1018.34 1018.21 1018.10 1018.14 1018.46 1018.68 1018.75 1018.71 1019.06 1019.19 1019.94 1020.16 1020.30 1020.54 1020.83 1020.91 1021.04 1021.20 1021.41 1021.67 1022.00 1022.33 1022.61 1022.75 1022.85 1023.01 1023.17 1023.34 1023.51 1023.63 1023.75
1018.07 1018.12 1018.09 1018.07 1018.12 1018.04 1018.24 1018.34 1018.46 1018.58 1018.41 1018.33 1018.26 1018.26 1018.19 1018.12 1018.28 1018.33 1018.65 1018.83 1019.14 1019.28 1019.35 1019.93 1020.14 1020.52 1020.69 1020.72 1020.79 1021.04 1021.22 1021.48 1021.75 1022.00 1022.30 1022.47 1022.61 1022.70 1022.85 1023.00 1023.23 1023.41 1023.45
1017.77 1017.90 1017.76 1017.91 1017.93 1018.19 1018.39 1018.52 1018.65 1018.73 1018.65 1018.46 1018.18 1018.38 1018.30 1018.31 1018.36 1018.53 1018.50 1018.56 1018.93 1019.25 1019.41 1019.69 1019.68 1019.93 1020.45 1020.44 1020.49 1020.68 1020.98 1021.31 1021.51 1021.59 1021.87 1022.18 1022.32 1022.44 1022.54 1022.67 1022.79 1022.92 1023.03
1017.58 1017.59 1017.47 1017.60 1017.74 1017.98 1018.42 1018.64 1018.68 1018.60 1018.50 1018.67 1018.32 1018.15 1018.31 1018.42 1018.40 1018.44 1018.39 1018.45 1018.71 1018.86 1019.11 1019.43 1019.47 1019.54 1019.78 1020.31 1020.39 1020.50 1020.71 1020.95 1021.18 1021.29 1021.47 1021.78 1021.95 1022.07 1022.14 1022.28 1022.36 1022.44 1022.53
1017.40 1017.43 1017.37 1017.55 1017.67 1017.82 1018.28 1018.58 1018.56 1018.40 1018.55 1018.81 1018.52 1018.42 1017.87 1018.24 1018.24 1018.33 1018.52 1018.55 1018.63 1018.65 1018.74 1019.18 1019.41 1019.55 1019.55 1019.59 1019.75 1020.23 1020.37 1020.57 1020.77 1020.92 1021.06 1021.30 1021.52 1021.67 1021.73 1021.82 1021.91 1022.08 1022.24
1017.13 1017.33 1017.34 1017.48 1017.71 1017.94 1017.94 1018.29 1018.44 1018.41 1018.35 1018.71 1019.01 1018.80 1018.09 1017.64 1017.95 1018.20 1018.37 1018.33 1018.56 1018.62 1018.48 1018.84 1019.11 1019.25 1019.44 1019.38 1019.73 1019.81 1020.04 1020.25 1020.48 1020.64 1020.71 1020.87 1021.11 1021.30 1021.38 1021.53 1021.71 1021.89 1022.03
1016.98 1017.13 1017.35 1017.44 1017.74 1017.70 1017.92 1018.00 1018.20 1018.26 1018.32 1018.28 1018.77 1018.86 1019.00 1018.61 1017.73 1017.38 1017.93 1018.04 1018.25 1018.34 1018.27 1018.31 1018.50 1018.83 1019.09 1019.20 1019.34 1019.38 1019.64 1019.97 1020.27 1020.38 1020.40 1020.50 1020.69 1020.91 1021.07 1021.22 1021.40 1021.61 1021.75
1016.89 1017.06 1017.40 1017.47 1017.59 1017.57 1017.80 1017.72 1018.02 1018.28 1018.17 1018.12 1018.23 1018.47 1018.61 1018.45 1018.23 1017.76 1017.19 1017.47 1017.95 1017.89 1017.99 1017.98 1017.99 1018.19 1018.60 1018.75 1018.78 1018.93 1019.46 1019.75 1019.93 1020.00 1020.08 1020.19 1020.32 1020.46 1020.65 1020.81 1021.02 1021.22 1021.36
1016.73 1016.91 1017.09 1017.23 1017.23 1017.25 1017.40 1017.42 1017.71 1017.94 1017.90 1017.97 1018.12 1018.39 1018.16 1017.93 1017.82 1017.75 1017.41 1017.31 1017.38 1017.45 1017.55 1017.58 1017.60 1017.79 1018.07 1018.28 1018.56 1018.78 1019.08 1019.34 1019.49 1019.58 1019.73 1019.90 1020.07 1020.17 1020.27 1020.38 1020.52 1020.68 1020.81
1016.35 1016.67 1016.83 1016.98 1017.05 1017.09 1017.10 1017.04 1017.43 1017.71 1017.70 1017.69 1017.98 1017.99 1018.09 1017.85 1017.87 1017.81 1017.80 1017.54 1017.34 1017.24 1017.12 1017.25 1017.44 1017.47 1017.61 1017.77 1017.94 1018.54 1018.74 1019.02 1019.08 1019.16 1019.28 1019.53 1019.73 1019.90 1020.02 1020.08 1020.13 1020.16 1020.21
1015.91 1016.21 1016.51 1016.59 1016.71 1016.79 1016.82 1016.83 1017.20 1017.45 1017.69 1017.64 1017.78 1017.87 1017.80 1017.69 1017.71 1017.77 1017.74 1017.54 1017.17 1016.93 1016.84 1016.75 1016.95 1016.98 1017.23 1017.40 1017.57 1018.32 1018.14 1018.51 1018.66 1018.83 1018.97 1019.16 1019.37 1019.54 1019.68 1019.73 1019.78 1019.84 1019.90
1015.74 1015.94 1016.07 1016.40 1016.41 1016.55 1016.61 1016.83 1017.11 1017.31 1017.37 1017.50 1017.59 1017.62 1017.58 1017.65 1017.47 1017.60 1017.67 1017.47 1017.36 1016.99 1016.44 1016.41 1016.54 1017.08 1016.88 1017.10 1017.29 1017.56 1017.58 1017.81 1018.22 1018.39 1018.60 1018.77 1019.00 1019.18 1019.29 1019.38 1019.46 1019.58 1019.66
1015.61 1015.82 1015.96 1016.23 1016.34 1016.40 1016.51 1016.70 1016.83 1016.92 1017.13 1017.22 1017.29 1017.38 1017.37 1017.39 1017.45 1017.36 1017.38 1017.44 1017.52 1017.21 1016.82 1016.55 1016.43 1016.79 1016.75 1016.85 1017.11 1017.35 1017.19 1017.58 1017.84 1018.13 1018.29 1018.41 1018.55 1018.72 1018.90 1019.06 1019.17 1019.20 1019.24
1015.29 1015.52 1015.69 1015.94 1016.14 1016.32 1016.37 1016.59 1016.62 1016.59 1016.68 1016.90 1017.03 1017.12 1017.15 1017.26 1016.97 1017.19 1017.20 1017.38 1017.22 1017.34 1016.88 1016.43 1016.84 1016.66 1016.72 1016.68 1016.63 1016.95 1016.85 1016.85 1016.83 1017.50 1017.81 1017.98 1018.19 1018.36 1018.51 1018.60 1018.65 1018.70 1018.72
1014.90 1015.08 1015.24 1015.43 1015.75 1015.89 1016.03 1016.17 1016.09 1016.25 1016.35 1016.41 1016.64 1016.73 1016.78 1016.78 1016.86 1017.07 1017.18 1017.21 1017.21 1017.34 1017.14 1016.61 1016.39 1016.30 1016.53 1016.53 1016.41 1016.65 1016.42 1016.34 1016.37 1016.73 1017.35 1017.58 1017.75 1017.87 1018.01 1018.11 1018.10 1018.10 1018.17
1014.39 1014.53 1014.93 1015.17 1015.21 1015.37 1015.64 1015.72 1015.84 1015.97 1015.96 1016.06 1016.22 1016.38 1016.53 1016.65 1016.56 1016.54 1016.84 1016.74 1016.68 1016.82 1016.96 1016.64 1016.20 1016.27 1016.24 1016.29 1016.25 1016.33 1016.29 1016.08 1016.04 1016.31 1016.82 1016.92 1017.01 1017.09 1017.13 1017.20 1017.34 1017.48 1017.57
1013.86 1014.05 1014.27 1014.66 1014.78 1014.89 1015.05 1015.22 1015.38 1015.48 1015.52 1015.62 1015.72 1015.89 1015.97 1016.10 1016.19 1016.32 1016.35 1016.50 1016.63 1016.55 1016.46 1016.45 1016.10 1016.01 1016.05 1016.09 1016.16 1015.80 1015.64 1015.80 1015.40 1015.28 1015.65 1015.84 1016.02 1016.26 1016.53 1016.60 1016.67 1016.71 1016.69
1013.41 1013.63 1013.84 1014.10 1014.34 1014.43 1014.40 1014.66 1014.83 1015.00 1015.20 1015.21 1015.32 1015.47 1015.52 1015.67 1015.84 1016.02 1016.02 1015.98 1016.16 1016.20 1015.90 1015.84 1015.79 1015.71 1015.73 1015.75 1015.73 1015.38 1015.38 1015.20 1015.06 1015.16 1014.95 1014.75 1014.81 1014.97 1014.93 1015.54 1015.37 1015.44 1015.45
1013.07 1013.21 1013.33 1013.44 1013.66 1013.72 1013.68 1014.06 1014.18 1014.26 1014.44 1014.62 1014.60 1014.75 1015.04 1015.33 1015.55 1015.59 1015.67 1015.79 1015.91 1015.85 1015.73 1015.42 1015.08 1015.03 1015.16 1015.24 1015.16 1015.20 1015.03 1014.87 1014.42 1014.72 1014.75 1014.12 1014.30 1014.20 1013.97 1013.96 1014.08 1014.44 1014.64
1012.33 1012.54 1012.66 1012.79 1012.87 1013.01 1013.07 1013.33 1013.49 1013.57 1013.71 1013.81 1013.96 1014.08 1014.25 1014.23 1014.66 1014.91 1015.06 1015.29 1015.40 1015.36 1015.25 1015.03 1015.02 1014.84 1014.77 1014.87 1014.96 1014.99 1014.81 1014.68 1014.32 1014.08 1014.67 1013.81 1013.59 1013.56 1013.43 1013.07 1013.60 1013.95 1014.14
1011.43 1011.74 1011.91 1012.05 1012.09 1012.23 1012.49 1012.60 1012.75 1012.97 1012.99 1012.87 1013.18 1013.41 1013.64 1013.78 1014.01 1014.32 1014.56 1014.53 1014.47 1014.44 1014.50 1014.60 1014.49 1014.43 1014.64 1014.73 1014.77 1014.65 1014.77 1014.71 1014.45 1014.29 1014.30 1013.93 1013.43 1012.95 1012.94 1012.74 1013.11 1013.41 1013.65
1010.69 1010.74 1011.04 1011.43 1011.55 1011.60 1011.98 1012.43 1012.71 1012.41 1012.13 1012.10 1012.27 1012.74 1013.07 1013.45 1013.65 1014.07 1014.24 1014.00 1013.87 1013.76 1013.66 1014.13 1014.22 1014.45 1014.66 1014.90 1014.92 1014.80 1014.81 1014.96 1014.58 1014.16 1014.19 1014.23 1013.45 1013.23 1012.92 1012.58 1012.30 1013.32 1013.61
1009.54 1009.93 1010.28 1010.58 1010.86 1011.02 1011.18 1011.70 1012.20 1012.19 1011.70 1011.61 1011.73 1012.24 1012.87 1013.13 1013.51 1013.94 1014.06 1013.67 1013.39 1013.06 1013.37 1013.70 1014.37 1014.56 1014.49 1014.70 1015.03 1014.85 1014.93 1014.85 1014.86 1014.72 1015.13 1014.72 1013.97 1013.91 1013.19 1012.36 1012.83 1012.95 1012.86
Wind_Speed
4 4 3 3 3 3 4 4 4 3 3 3 3 0 3 4 4 3 3 8 10 13 13 13 14 12 12 12 12 13 14 13 13 13 12 11 10 9 9 9 9 9 10
4 3 2 3 3 3 4 3 3 3 4 3 2 1 1 2 3 5 4 7 10 10 11 14 12 12 11 11 13 15 15 14 13 11 10 9 9 9 10 11 10 11 10
4 4 3 3 3 2 3 2 2 3 3 4 3 1 0 3 6 6 5 7 9 8 7 8 10 11 11 12 14 15 15 13 12 10 8 9 9 10 10 10 11 11 11
4 4 3 3 1 1 1 1 1 2 4 4 3 4 3 4 6 7 5 5 5 5 8 7 8 9 10 11 13 14 13 12 11 9 9 10 10 10 10 10 11 11 11
4 5 3 2 2 2 1 1 1 3 3 3 3 4 4 4 4 5 6 6 6 4 4 8 7 9 10 11 11 12 12 12 11 11 10 10 10 10 10 10 11 11 11
4 4 3 3 3 3 2 1 1 1 2 3 4 3 4 3 3 3 4 5 6 6 5 5 6 8 9 9 10 10 9 10 10 10 10 10 10 10 9 9 9 10 10
4 4 3 2 4 3 2 4 2 1 1 2 2 2 3 3 3 3 3 3 6 6 6 5 5 4 7 7 6 7 9 9 9 10 9 9 10 9 9 9 9 9 9
5 5 3 2 3 3 4 5 3 1 2 1 2 2 1 4 3 2 2 3 3 3 5 6 6 6 5 6 8 9 8 9 9 9 9 10 10 10 10 10 10 9 8
6 6 4 3 3 4 3 4 4 3 1 2 2 3 2 1 1 3 4 4 4 4 5 6 8 8 7 6 6 9 9 8 10 10 9 9 10 10 10 10 9 9 9
6 6 5 4 4 3 4 4 4 3 2 1 2 2 2 3 2 2 4 4 5 6 5 6 7 8 8 7 8 6 6 8 9 11 10 9 9 10 10 10 10 10 10
7 6 5 5 4 4 3 3 5 4 2 1 1 2 2 1 2 3 0 3 4 5 5 5 6 6 7 7 7 8 10 10 10 9 9 9 9 9 10 10 11 11 11
5 7 6 6 5 4 4 3 3 4 3 2 2 3 2 2 1 2 3 0 3 1 3 5 6 5 5 6 8 8 9 11 11 10 9 8 7 9 10 10 11 12 12
5 7 7 6 6 6 5 4 4 4 4 2 3 2 3 3 1 1 3 2 2 1 2 4 5 6 5 5 5 6 11 11 10 10 9 9 8 7 8 10 11 11 12
6 6 7 7 7 6 5 4 3 3 4 3 4 4 3 3 3 2 2 3 2 1 1 1 2 5 6 7 4 5 8 10 9 8 9 8 8 9 9 8 8 8 8
5 6 6 7 8 7 6 6 4 5 4 4 2 3 3 2 3 3 3 2 2 3 2 3 1 2 3 5 6 8 8 7 9 9 9 10 9 9 10 10 9 9 9
5 5 6 7 7 7 7 6 5 5 4 4 3 4 3 2 2 2 3 2 3 3 3 2 2 2 2 3 3 7 6 3 9 9 9 10 10 10 9 10 10 10 10
7 7 8 7 7 7 8 7 9 7 6 5 5 4 4 4 4 1 3 3 4 4 5 3 1 2 3 3 3 2 4 5 5 10 9 10 10 10 10 11 11 11 11
9 8 8 9 8 8 8 8 9 7 7 7 6 6 5 4 5 3 3 5 4 4 5 6 3 2 4 2 4 4 4 4 5 7 8 9 11 12 11 11 12 12 12
10 10 9 9 10 9 9 9 8 7 8 8 7 7 6 6 5 4 5 5 5 4 5 5 6 3 3 3 3 4 5 5 6 5 9 11 13 13 14 14 13 13 13
12 12 11 10 9 8 9 9 8 9 8 8 8 8 7 7 8 6 6 6 6 6 6 6 6 6 5 3 4 5 5 5 5 6 8 10 5 11 14 14 14 15 16
13 12 12 11 11 10 9 10 10 10 10 9 9 9 9 9 8 8 6 7 7 7 7 6 6 6 6 6 6 4 5 5 6 5 6 7 6 7 9 14 15 18 18
13 13 14 13 13 10 10 11 10 9 10 10 10 10 10 9 11 12 12 12 9 9 9 8 8 8 9 7 6 7 6 6 7 2 5 6 4 7 8 8 9 12 11
13 14 15 14 13 14 12 14 14 10 9 10 11 10 10 9 9 10 11 13 12 14 13 9 11 10 9 8 6 7 8 7 8 5 5 9 7 8 9 8 9 10 12
13 13 13 14 13 12 13 15 15 12 11 13 12 12 11 11 10 10 9 9 10 11 13 11 12 11 9 7 6 6 7 7 7 7 5 7 7 9 8 8 6 10 10
12 12 12 13 14 12 12 12 11 10 11 12 12 11 10 10 9 5 9 11 12 11 6 7 6 6 2 3 5 4 5 5 5 6 3 5 8 8 8 10 7 9 3
13 10 12 13 14 13 13 12 10 6 8 8 9 10 8 9 4 6 9 10 11 11 8 8 6 4 4 4 3 4 2 4 4 3 4 4 5 3 4 4 2 5 4
Wind_Direction
200 218 221 241 265 252 258 272 281 312 322 7 341 98 146 161 185 191 160 183 220 194 187 184 177 173 179 187 189 190 188 194 202 208 212 215 221 226 235 236 237 243 246
206 231 244 258 262 253 254 272 320 323 349 3 347 353 131 139 162 165 149 140 159 158 180 174 165 179 181 186 189 186 186 193 203 209 213 222 225 231 234 239 240 245 244
222 265 247 264 266 236 220 249 281 326 4 341 351 346 58 107 122 139 146 139 151 168 176 179 183 193 189 177 175 172 178 184 195 205 210 214 216 228 238 236 242 251 253
235 239 267 269 246 226 160 189 308 356 356 1 14 30 51 110 117 129 134 137 155 168 188 200 186 196 192 184 180 184 184 183 193 210 228 238 233 235 242 243 243 249 255
242 249 251 277 151 140 118 206 80 6 3 18 35 30 58 92 117 117 131 136 145 179 181 156 206 199 198 186 184 189 194 195 203 216 229 233 241 248 248 241 245 250 253
223 234 242 258 196 149 156 187 67 115 337 16 39 42 60 98 109 119 145 155 160 165 189 201 185 183 206 195 193 195 185 199 210 214 221 228 234 236 235 231 236 243 250
230 222 214 241 193 183 168 170 150 179 107 331 328 120 101 115 158 158 176 191 172 182 187 191 220 204 181 211 215 201 202 210 217 218 219 225 229 232 234 237 239 239 235
223 224 207 199 193 213 158 170 165 161 71 144 351 295 219 164 162 153 191 198 226 217 206 198 222 222 216 203 199 198 210 218 223 223 219 220 228 232 233 233 234 230 230
236 218 191 203 212 239 183 180 189 188 194 149 215 313 260 13 230 165 194 205 208 234 225 214 216 220 220 229 205 205 214 222 230 234 232 228 231 236 237 235 231 226 225
197 194 194 188 206 237 237 178 187 192 188 135 178 217 281 311 319 170 180 205 218 223 230 213 218 215 224 228 226 251 186 215 226 230 238 239 240 239 239 236 228 224 225
184 177 192 189 194 200 181 195 155 196 185 246 198 175 218 243 260 294 150 172 207 227 225 222 222 225 218 229 239 229 212 222 226 227 228 239 249 245 242 239 234 234 238
179 180 183 202 202 212 219 193 187 193 200 187 178 222 263 313 359 299 282 237 283 196 226 222 221 223 231 227 241 259 211 220 223 224 226 230 241 250 247 243 239 239 243
197 183 185 194 207 222 221 214 199 203 219 220 189 223 235 258 247 316 305 2 326 305 247 211 212 216 217 225 228 229 211 227 223 215 210 218 228 237 244 248 249 256 257
200 182 193 200 214 221 225 223 226 235 230 224 224 238 263 234 224 223 286 309 330 289 253 333 207 209 216 230 231 198 241 213 219 217 211 212 219 228 234 242 248 253 256
204 194 194 212 220 221 231 235 224 221 225 239 237 263 261 228 233 191 243 249 325 323 336 93 238 228 241 230 226 227 240 190 216 217 216 209 213 220 229 237 244 250 254
198 183 197 206 221 230 230 230 237 229 227 238 244 255 254 248 261 208 220 225 258 279 303 344 0 330 296 243 177 237 234 222 208 224 220 215 213 216 224 232 243 246 248
204 200 191 192 217 233 234 227 230 231 230 235 227 256 260 246 261 245 242 234 226 238 278 293 269 331 285 275 217 237 242 240 237 200 218 210 216 222 227 229 233 239 243
208 205 195 187 204 221 232 228 233 220 230 243 241 227 250 250 252 243 231 241 233 216 264 272 313 262 254 261 266 242 231 241 256 172 208 219 222 225 231 235 236 237 241
216 206 215 219 205 209 216 225 228 230 231 229 237 234 229 220 228 236 242 245 238 228 223 252 272 255 270 248 231 242 248 252 247 190 210 224 226 228 226 230 232 236 241
218 216 211 221 225 214 214 222 228 235 240 235 232 235 240 236 242 241 237 234 238 243 236 247 259 269 269 267 270 270 244 226 257 230 229 252 240 225 233 233 232 234 237
228 230 224 222 232 238 227 213 218 221 233 239 238 236 236 240 240 246 249 230 229 237 244 239 251 259 257 248 255 274 269 284 261 258 258 259 247 241 236 225 249 235 236
231 233 236 233 233 238 222 205 216 225 229 234 243 245 250 229 236 233 237 253 253 237 238 250 252 249 256 252 254 253 262 264 285 154 257 271 266 263 263 258 239 238 228
226 230 234 234 232 230 209 205 208 232 230 242 247 247 249 249 224 250 229 230 238 237 242 246 253 258 271 264 272 256 251 260 266 273 248 279 275 265 277 277 218 232 240
219 230 233 230 230 227 202 207 201 223 230 234 243 244 247 258 253 248 252 259 252 241 231 232 239 253 241 264 253 267 281 278 270 267 258 277 282 281 290 286 231 234 248
213 219 230 231 227 232 204 214 195 211 223 225 224 237 235 240 255 223 256 262 265 264 221 243 279 316 325 277 280 276 251 253 268 266 208 278 287 289 292 299 302 76 7
215 206 222 228 225 223 201 192 191 216 216 223 215 222 198 241 230 208 243 255 258 259 247 200 199 195 200 139 177 247 277 248 262 266 24 274 325 344 302 325 9 345 346